Flag for Canada Weather past 2 weeks in Happy Valley-Goose Bay, Newfoundland and Labrador, Canada

Now
48 °F

Passing clouds.


Feels Like: 46 °F
Forecast: 48 / 72 °F
Wind: 6 mph from Northwest

Location: Goose

Current Time: Sep 2, 2014 at 12:36:29 AM

Latest Report: Sep 2, 2014 at 12:00 AM


Visibility: 15 mi

Pressure: 29.98 "Hg

Humidity: 76%

Dew point: 41 °F

Location of Happy Valley-Goose BayLocation

Historic Weather in Happy Valley-Goose Bay — Graph

°F

Happy Valley-Goose Bay temperature yesterday

Maximum temperature yesterday: 66 °F (at 6:00 PM)
Minimum temperature yesterday: 46 °F (at 5:00 AM)
Average temperature yesterday: 56 °F

Past Weeks' High & Low Weather Summary

 TemperatureHumidityPressure
High86 °F (Aug 24, 3:00 PM)94% (Aug 26, 10:00 AM)30.27 "Hg (Aug 26, 10:00 AM)
Low37 °F (Aug 28, 5:00 AM)31% (Aug 29, 6:00 PM)29.39 "Hg (Aug 27, 4:00 AM)
Average59 °F69%29.95 "Hg
* Reported Aug 17 11:00 PM — Sep 1 11:00 PM, Happy Valley-Goose Bay, Weather by CustomWeather, © 2014

Note: Actual official high and low records may vary slightly from our data, if they occured in-between our weather recording intervals... More about our weather records

Advertising

Happy Valley-Goose Bay weather history for previous 24 hours

 ConditionsComfort  
Time TempWeatherWind HumidityBarometerVisibility
11:00 PM
Sep 1
52 °FPassing clouds.2 mph67%29.98 "Hg15 mi
10:00 PM54 °FPassing clouds.3 mph67%29.98 "Hg15 mi
9:00 PM57 °FBroken clouds.6 mph67%29.99 "Hg15 mi
8:00 PM61 °FBroken clouds.2 mph52%29.98 "Hg15 mi
7:00 PM64 °FPartly sunny.3 mph40%29.98 "Hg15 mi
6:00 PM66 °FPartly sunny.7 mph78%29.97 "Hg15 mi
5:00 PM64 °FPartly sunny.2 mph40%29.97 "Hg15 mi
4:00 PM64 °FBroken clouds.7 mph40%29.97 "Hg15 mi
3:00 PM64 °FBroken clouds.12 mph40%29.98 "Hg15 mi
2:00 PM64 °FBroken clouds.8 mph43%29.98 "Hg15 mi
1:00 PM61 °FPartly sunny.16 mph45%29.99 "Hg15 mi
12:00 PM63 °FBroken clouds.10 mph42%29.99 "Hg15 mi
11:00 AM59 °FPassing clouds.14 mph48%29.98 "Hg15 mi
10:00 AM57 °FScattered clouds.13 mph55%29.98 "Hg15 mi
9:00 AM54 °FPassing clouds.15 mph58%29.98 "Hg15 mi
8:00 AM50 °FPassing clouds.13 mph67%29.97 "Hg15 mi
7:00 AM48 °FPassing clouds.8 mph66%29.96 "Hg15 mi
6:00 AM46 °FPassing clouds.8 mph71%29.95 "Hg15 mi
5:00 AM46 °FClear.6 mph71%29.94 "Hg15 mi
4:00 AM48 °FPassing clouds.7 mph66%29.92 "Hg15 mi
3:00 AM48 °FPassing clouds.6 mph66%29.90 "Hg15 mi
2:00 AM48 °FPassing clouds.7 mph66%29.89 "Hg15 mi
1:00 AM52 °FPassing clouds.6 mph62%29.88 "Hg15 mi
12:00 AM54 °FPassing clouds.8 mph58%29.86 "Hg15 mi
Weather by CustomWeather, © 2014

See weather overviewHow to use our weather pages